Change the Weather History Date:

Sunday, January 20, 2013

  Actual Average Record
Temperature  
Mean Temperature 18 °F -  
Max Temperature 35 °F 16 °F 36 °F (2006)
Min Temperature 1 °F -7 °F -20 °F (2000)
Degree Days  
Heating Degree Days 48    
Moisture  
Dew Point 11 °F    
Average Humidity 80    
Maximum Humidity 100    
Minimum Humidity 71    
Precipitation  
Precipitation 0.58 in - - ()
Sea Level Pressure  
Sea Level Pressure 29.55 in    
Wind  
Wind Speed 8 mph (South)    
Max Wind Speed 17 mph    
Max Gust Speed 43 mph    
Averages and records for this station are not official NWS values.
T = Trace of Precipitation, MM = Missing Value Source: NWS Daily Summary

Daily Weather History Graph

Daily Weather History Graph

Search for Another Location

Airport or City:

Trip Planner

Search our weather history database for the weather conditions in past years. The results will help you decide how hot, cold, wet, or windy it might be!

Date:

Astronomy

Jan. 20, 2013 Rise Set
Actual Time 7:14 AM EST 4:24 PM EST
Civil Twilight 6:40 AM EST 4:58 PM EST
Nautical Twilight 6:03 AM EST 5:35 PM EST
Astronomical Twilight 5:27 AM EST 6:11 PM EST
Moon 11:24 AM EST (1/20) 1:41 AM EST (1/20)
Length of Visible Light 10h 17m
Length of Day
9h 10m
Waxing Gibbous, 66% of the Moon is Illuminated
Jan 20
Waxing Gibbous
Jan 26
Full
Feb 3
Last Quarter
Feb 10
New
Feb 17
First Quarter

Hourly Weather History & Observations

Time (EST) Temp. Windchill Dew Point Humidity Pressure Visibility Wind Dir Wind Speed Gust Speed Precip Events Conditions
12:25 AM - - - N/A% 29.88 in - Variable 4.6 mph - 0.00 in   Unknown
1:25 AM - - - N/A% 29.85 in - Variable 4.6 mph - 0.01 in   Unknown
2:25 AM - - - N/A% 29.81 in - Variable 4.6 mph - 0.01 in   Unknown
3:26 AM - - - N/A% 29.78 in - Variable 4.6 mph - 0.01 in   Unknown
4:25 AM 19.8 °F 9.9 °F - N/A% 29.74 in - ESE 8.1 mph 15.0 mph 0.04 in   Unknown
5:25 AM - - - N/A% 29.68 in - Variable 5.8 mph 17.3 mph 0.03 in   Unknown
6:25 AM 20.7 °F 11.0 °F - N/A% 29.61 in - East 8.1 mph 17.3 mph 0.08 in   Unknown
7:25 AM - - - N/A% 29.55 in - East 9.2 mph 20.7 mph N/A   Unknown
8:25 AM 21.2 °F 10.9 °F - N/A% 29.49 in - ESE 9.2 mph 17.3 mph 0.04 in   Unknown
9:25 AM 22.5 °F 13.2 °F - N/A% 29.44 in - ESE 8.1 mph 15.0 mph N/A   Unknown
10:25 AM 25.3 °F 16.0 °F - N/A% 29.37 in - SE 9.2 mph 17.3 mph 0.02 in   Unknown
11:25 AM 27.1 °F 16.9 °F - N/A% 29.33 in - SSE 11.5 mph 19.6 mph 0.01 in   Unknown
12:26 PM - - - N/A% 29.29 in - South 10.4 mph 20.7 mph 0.01 in   Unknown
1:25 PM 34.7 °F 24.3 °F 28.2 °F 77% 29.28 in - SSW 17.3 mph 29.9 mph 0.01 in   Unknown
2:25 PM 33.6 °F 23.3 °F 25.9 °F 73% 29.30 in - SSW 16.1 mph 29.9 mph 0.06 in   Unknown
3:28 PM 30.4 °F 20.5 °F - N/A% 29.35 in - SW 12.7 mph 29.9 mph 0.01 in   Unknown
4:25 PM 28.6 °F 18.7 °F 25.2 °F 87% 29.37 in - SW 11.5 mph 25.3 mph 0.03 in   Unknown
5:28 PM 24.1 °F 12.0 °F 24.6 °F 100% 29.40 in - SW 13.8 mph 33.4 mph 0.20 in   Unknown
6:25 PM 20.5 °F 6.4 °F 16.9 °F 86% 29.45 in - SSW 16.1 mph 34.5 mph N/A   Unknown
7:25 PM 14.2 °F 3.1 °F 10.6 °F 86% 29.55 in - WSW 8.1 mph 32.2 mph N/A   Unknown
8:25 PM 5.7 °F -11.4 °F -0.6 °F 75% 29.62 in - SW 13.8 mph 42.6 mph N/A   Unknown
9:25 PM 1.8 °F -12.0 °F -5.8 °F 71% 29.66 in - SW 8.1 mph 20.7 mph 0.01 in   Unknown
10:25 PM 1.4 °F -12.5 °F -5.6 °F 72% 29.68 in - WSW 8.1 mph 24.2 mph N/A   Unknown
11:25 PM 1.0 °F -12.9 °F -5.6 °F 74% 29.70 in - SW 8.1 mph 24.2 mph 0.00 in   Unknown